Location: Middlebury
(44.0153°N, 73.1678°W)
Time: 22:13:43
(UTC-04:00)

ISS - Pass Details

Date: 29 June 2021
Orbit: 419 x 421 km, 51.6° (Epoch: 03 August)

Event Time Altitude Azimuth Distance (km) Brightness Sun altitude
Exits shadow 04:27:37 - 238° (WSW) 1,551 -1.5 -7.2°
Reaches altitude 10° 04:27:45 10° 238° (WSW) 1,497 -1.6 -7.2°
Maximum altitude 04:31:07 89° 309° (NW) 424 -3.7 -6.7°
Drops below altitude 10° 04:34:30 10° 58° (ENE) 1,503 0.8 -6.3°
Sets 04:36:30 0° 59° (ENE) 2,325 2.3 -6.0°
